星链-5953 (STARLINK-5953 )

导读 | 星芒AI

STARLINK-5953 是 SpaceX Starlink 卫星互联网项目中的第 5953 颗卫星。该卫星属于低轨通信卫星群,旨在为全球用户提供高速互联网服务。它于 2023 年发射,运行在约 550 公里的轨道高度,配备先进通信设备,支持宽带数据传输。Starlink 项目致力于改善偏远地区网络覆盖,提升全球互联网接入能力。STARLINK-5953 的部署有助于增强系统冗余与信号稳定性。

基本信息
目录编号:
56799
目录名称:
STARLINK-5953
国际标识:
2023-078AJ
轨道中心:
EARTH
卫星名称:
星链-5953
卫星全名:
星链-5953 (STARLINK-5953 )
卫星状态:
在轨 (已飞行884 天)
发射日期:
2023-05-31 UTC
国别 :
美国 (US)
星等 :
--
轨道信息
数据来源 国际轨道数据 AOE轨道数据
星历时间 2025-10-30T19:13:49+0800
20小时前
查看轨道信息
2025-10-31T05:00:00+0800
10小时前
查看轨道信息
半长轴 6950.192km 6950.176km
偏心率 0.0002972 0.0002162
轨道倾角 69.998° 69.997°
近地点辐角 269.373° 307.179°
升交点赤经 312.812° 311.784°
平近点角 90.708° 88.047°
近地点 569.991km 570.538km
远地点 574.123km 573.544km
周期 96.107分钟 96.107分钟
每日圈数 14.983304 14.983357
详细信息
固有亮度:
5
最大亮度:
2.5
卫星平台:
Starlink v1.5
覆盖范围:
全球
运营商:
太空探索技术公司
运营商所在国:
美国
制造商(研发单位):
太空探索技术公司
制造商所在国:
美国
使用方式:
暂无
卫星简介
星链(Starlink)计划是由太空探索技术公司(SpaceX)提出的一个巨型低轨卫星互联网星座项目,计划在2019年至2024年间在太空搭建由约1.2万颗卫星组成的“星链”网络,其中1584颗将部署在地球上空550千米处的近地轨道,并从2020年开始工作。该卫星仍在工作。
2D轨道图
3D轨道图
轨道高度分析图
轨道倾角分析图
轨道综合分析图
查看轨道综合分析图